Location: Hains Lake
(37.8540°N, 99.8578°W)
Time: 15:40:45
(UTC+00:00)

Vanguard 1 - Pass Details

Date: 05 December 2022
Orbit: 649 x 3831 km, 34.2° (Epoch: 31 January)

Event Time Altitude Azimuth Distance (km) Brightness Sun altitude
Rises 01:46:32 0° 213° (SSW) 4,763 14.1 -28.2°
Reaches altitude 10° 01:51:26 10° 196° (SSW) 3,194 12.9 -29.2°
Enters shadow 01:55:06 17° 167° (SSE) 2,328 11.9 -29.9°
